Timeline UpdatesTrip UpdatesNews PostsPvt PostsTravel TipsAdmin PostsConv PostsFollowed PostsChat RequestsBlog PostsPNR Posts

Disclaimer
Search
 
 
Tue Jul 29, 2014 14:11:24 ISTHomeTrainsΣChainsAtlasPNRForumGalleryNewsFAQTripsMembersLoginFeedback
No Recent News for this Train
Other Trains in the News **new
Latest...
..
Wed Jul 23, 2014 (08:03AM)
⇐ Return Journey: Train# 12640

12639/Brindavan Express

Jul 02 2013 (6:46PM)
Change Departure Station:
Change Arrival Station:
Post a Train Travel TipPost a Train Travel Tip **new
Post a Comment/Question/Picture/VideoPost a Comment/Question/Picture/Video
Inaugural Run
Thu Oct 01, 1964
Pantry/Catering
✕ NO Pantry Car
✕ NO Catering
RSA - Rake Sharing
No RSA
Rake/Coach Composition
LOCO-SLR-UR-UR-UR-UR-UR-UR-UR-UR-UR-UR-D6-D5-D4-D3-D2-D1-UR-UR-UR-UR-UR-SLRD
Loco
Lallaguda/RPM WAP-7
News    PNR    Forum    Time-Table    Availability    Fare Chart    Map    Arr/Dep History    Trips    Gallery    ΣChains    X/O    Timeline    
Travel Time: 6h 10m    10 halts    Distance: 358 km    Avg Speed: 58 km/hr
Type: SuperFast
Zone: SR/Southern
Departs @ 07:50 (Avg 2m late)
Platform# 3
SMTWTFS
Chennai Central/MAS 
Arrives @ 14:00 (Avg 4m late)
Platform# 1
SMTWTFS
Bangalore City Junction/SBC 

10 halts. 75 intermediate Stations between Chennai Central and Bangalore City Junction

Hide intermediate Stations  

#CodeStation NameX/OArrivesAvgDepartsAvgHaltPFDay#KmSpeedElevZoneAddress
1MAS»Chennai Central (12)»  -07:50+2310.0659mSRChennai 600003, Tamil Nadu
1.1BBQBasin Bridge Junction (7)  07:52-07:52-  12.2 656mSRChennai, Tamil Nadu
1.2VJMVyasarpadi Jeeva (2)  07:54-07:54-  14.1 655mSRChennai, Tamil Nadu
1.3VPYVyasarpadiX  07:54-07:54-  14.2 655mSRChennai, Tamil Nadu
1.4PERPerambur (4)  07:55-07:55-  15.5 657mSRChennai-600011 Phone: 044-25510359, Tamil Nadu
1.5PCWPerambur Carriage Works (3)  07:56-07:56-  16.2 6510mSRChennai, Tamil Nadu
1.6PEWPerambur Locomotive Works (3)  07:57-07:57-  17.6 6510mSRChennai, Tamil Nadu
1.7VLKVillivakkam (4)  07:59-07:59-  19.3 6511mSRchennai central, Tamil Nadu
1.8KOTRKorattur (2)  08:01-08:01-  112.1 6516mSRKorattur, Tamil Nadu
1.9PVMPattaravakkam (2)  08:03-08:03-  114.1 6515mSRAmbattur, Tamil Nadu
1.10ABUAmbattur (3)  08:04-08:04-  115.5 6523mSRAmbatturavadi, Tamil Nadu
1.11TMVLTirumullaivayil (2)  08:06-08:06-  117.2 6521mSRAmbattur, Tamil Nadu
1.12ANNRAnnanur (2)  08:07-08:07-  118.3 6520mSRAmbattur, Tamil Nadu
1.13AVDAvadi (4)  08:09-08:09-  121.0 6528mSRPhone: 044-26555408, Tamil Nadu
1.14HCHindu College (2)  08:12-08:12-  124.0 6528mSRPattabiram, Tamil Nadu
1.15PABPattabiramX  08:13-08:13-  125.0 6531mSRPattabiram, Tamil Nadu
1.16PRWSPattabiram West  08:14-08:14-  126.5 6528mSRPattabiram, Tamil Nadu
1.17NECNemilicherry Halt (2)  08:15-08:15-  127.2 6531mSRNemilicherry, Tamil Nadu
1.18TITiruninravur (3)X  08:17-08:17-  129.0 6537mSRThirunindravur, Tamil Nadu
1.19VEUVeppampattu  08:20-08:20-  132.2 6539mSRChennai Tiruvallur High Rd, Tamil Nadu
1.20SVRSevvapet RoadX  08:23-08:23-  135.7 6538mSRSevvapet, Tamil Nadu
1.21PTLRPutlur Halt  08:26-08:26-  138.9 6544mSRPutlur, Tamil Nadu
1.22TRLTiruvallur (6)X  08:28-08:28-  141.7 6550mSRTiruvallur, Tamil Nadu
1.23EGTEgattur HaltX  08:31-08:31-  144.9 6550mSREgattur, Tamil Nadu
1.24KBTKadambattur (2)X  08:33-08:33-  147.4 6550mSRKadambathur Bazaar Rd, Tamil Nadu
1.25SPAMSenji Panambakkam  08:36-08:36-  150.4 6554mSRKadambathur Rd, Tamil Nadu
1.26MAFManavurX  08:39-08:39-  153.0 6558mSRTiruvalangadu Rd, Tamil Nadu
1.27TOTiruvalangaduO  08:43-08:43-  158.2 6559mSRTiruvalangadu Rd, Tamil Nadu
1.28MSUMosur  08:46-08:46-  161.0 6561mSRArakkonam, Tamil Nadu
1.29PLMGPuliyamangalam  08:47-08:47-  162.5 6566mSRArakkonam, Tamil Nadu
2AJJArakkonam Junction (8)  08:53+1008:55+102m--168.76491mSRArakkonam, Tamil Nadu
2.1MLPMMelpakkam  08:56-08:56-  169.7 6492mSRArakkonam, Tamil Nadu
2.2CTREChitteri  09:04-09:04-  177.8 64104mSRState Highway 61, Tamil Nadu
2.3AVNAnavardikhanpet (3)X  09:06-09:06-  180.3 64109mSRState Highway 126, Tamil Nadu
2.4MDVEMahendra Vadi  09:12-09:12-  186.5 64127mSRState Highway 128, Tamil Nadu
2.5SHUSholinghurX  09:15-09:15-  190.3 64135mSRVellore, Tamil Nadu
2.6TUGThalangai  09:22-09:22-  197.7 64147mSRState Highway 61, Tamil Nadu
2.7MRLMMarudalamX  09:24-09:24-  199.6 64152mSRState Highway 61, Tamil Nadu
3WJRWalajah Road Junction (2)  09:29+909:30+101m21105.064178mSRAmmoor, Tamil Nadu
3.1MCNMukundarayapuram (2)X  09:37-09:37-  1112.9 64198mSRSipcot Ranipet, Tamil Nadu
3.2THLTiruvalam (2)  09:42-09:42-  1117.7 64195mSRState Highway 59, Tamil Nadu
3.3SVURSevurX  09:48-09:48-  1123.8 64203mSRSevoor, Tamil Nadu
4KPDKatpadi Junction (5)X  09:53+1009:55+102m11129.480213mSRVellore 632007, Tamil Nadu
4.1LTILatteri  10:01-10:01-  1137.4 80237mSRSH 59, Tamil Nadu
4.2VJVirinchipuramX  10:04-10:04-  1141.9 80237mSRSH 59, Tamil Nadu
4.3KVNKavanur  10:09-10:09-  1148.0 80250mSRSH 59, Tamil Nadu
4.4GYMGudiyattam (3)  10:13-10:13-  1153.9 80269mSRVellore, Tamil Nadu
4.5MEHMelalathurO  10:17-10:17-  1158.9 80275mSRSH 130, Tamil Nadu
4.6VLTValathoorX  10:21-10:21-  1164.0 80284mSRSH 130, Tamil Nadu
4.7MPIMelpatti  10:25-10:25-  1169.7 80290mSRSH 130, Tamil Nadu
4.8PCKMPachachakupam  10:30-10:30-  1175.7 80307mSRNH 46, Tamil Nadu
5ABAmburX  10:34+810:35+81m--1181.669330mSRAmbur, Tamil Nadu
5.1VGMVinnamangalamX  10:42-10:42-  1189.5 69340mSRNH 46, Tamil Nadu
6VNVaniyambadi  10:49+810:50+81m31197.862357mSRVaniyambadi, Tamil Nadu
6.1KDYKettandapatti  10:58-10:58-  1206.2 62378mSRNH 46, Tamil Nadu
7JTJJolarpettai Junction (5)X  11:05+1211:07+132m--1213.390405mSRJolarpettai, Tamil Nadu
7.1SKPTSomanayakkanpattiX  11:13-11:13-  1222.2 90420mSWRNational Highway 46, Tamil Nadu
7.2PUPatchur  11:18-11:18-  1230.4 90497mSWRVellore, Tamil Nadu
7.3MARMulanur (1)  11:26-11:26-  1241.3 90625mSWRNational Highway 46, Andhra Pradesh
8KPNKuppam (2)X  11:34+3411:35+341m--1253.668688mSWRKuppam, Andhra Pradesh
8.1GDPGudupalliX  11:44-11:44-  1263.5 68746mSWRChittoor, Andhra Pradesh
8.2BSMBisanattam  11:48-11:48-  1268.8 68769mSWRKR Rd, Andhra Pradesh
8.3KSMKamasamudramX  11:54-11:54-  1275.7 68789mSWRKolar Gold Fields, Karnataka
8.4VRDPVaradapur  12:01-12:01-  1283.1 68811mSWRUnnamed Rd, Karnataka
9BWTBangarapet Junction (6)X  12:05+3112:07+322m31287.770815mSWRBangarapet, Karnataka
9.1MZVMaralahalliX  12:14-12:14-  1295.8 70870mSWRMalur-Bangarapet Rd, Karnataka
9.2TCLTyakal (2)  12:17-12:17-  1300.0 70864mSWRKolar, Karnataka
9.3BFWByatrayanhalliX  12:25-12:25-  1309.3 70878mSWRMalur, Karnataka
9.4MLOMalur (4)  12:30-12:30-  1314.7 70905mSWRKolar, Karnataka
9.5DKNDevangonthi (3)  12:40-12:40-  1326.9 70897mSWRSaukya Rd, Karnataka
9.6WFDWhitefield (4)  12:47-12:47-  1334.7 70875mSWR560067, Karnataka
9.7SGWFWhitefield SatelliteX  12:49-12:49-  1337.2 70885mSWRBangalore, Karnataka
10KJMKrishnarajapuram (4)  12:55+3112:57+312m21344.115909mSWRBengaluru-560016, Karnataka
10.1BYPLBaiyyappanahalli (2)X  13:09-13:09-  1347.0 15913mSWRBengaluru-560038, Karnataka
10.2BNCEBangalore East (2)  13:25-13:25-  1351.0 15915mSWRBangalore, Karnataka
11BNCBangalore Cantt. (4)  13:35+1313:40+125m11353.413929mSWRBengaluru-560052, Karnataka
12SBC•Bangalore City Junction (10)•  14:00+4-11357.9-903mSWRBengaluru-560023, Karnataka
Scroll to Top
Scroll to Bottom